Regional Weather Roundup
Issued by NWS Cleveland, OH

Home | Current Version | Previous Version | Text Only | Print | Product List | Glossary Off
Versions: 1 2 3 4 5 6 7 8 9 10 11 12 13 14 15 16 17 18 19 20 21 22 23 24 25 26 27 28 29 30 31 32 33 34 35 36 37 38 39 40 41 42 43 44 45 46 47 48 49 50

000
ASUS41 KCLE 261200
RWRCLE
OHIO REGIONAL WEATHER ROUNDUP
NATIONAL WEATHER SERVICE WILMINGTON, OH
800 AM EDT TUE MAY 26 2015

NOTE: "FAIR" INDICATES FEW OR NO CLOUDS BELOW 12,000 FEET WITH NO
SIGNIFICANT WEATHER AND/OR OBSTRUCTIONS TO VISIBILITY.

OHZ001>008-015>018-024>027-034-035-043-044-261300-
   NORTHWEST OHIO

CITY           SKY/WX    TMP DP  RH WIND       PRES   REMARKS
DEFIANCE       PTSUNNY   67  63  87 S6        30.08R
FINDLAY        SUNNY     70  64  81 S10       30.10R
TOLEDO EXPRESS MOSUNNY   65  63  93 S8        30.08R
TOLEDO EXEC    PTSUNNY   69  62  78 S10       30.09S
LIMA           SUNNY     69  63  81 SW10      30.11R
$$

OHZ009>014-019>023-028>033-038-089-261300-
   NORTHEAST OHIO

CITY           SKY/WX    TMP DP  RH WIND       PRES   REMARKS
CLE-HOPKINS    CLOUDY    69  62  78 S9        30.14R
CLE-LAKEFRONT  CLOUDY    72  62  71 S12       30.11R
CUY CO. ARPT   CLOUDY    73  61  64 SW12      30.13R
LORAIN-ELYRIA  CLOUDY    68  62  81 S8        30.12S
ASHTABULA      CLOUDY    69  62  78 S6        30.15R
AKRON-CANTON   PTSUNNY   70  62  76 SW10      30.16R
WOOSTER        NOT AVBL
MANSFIELD      PTSUNNY   69  64  84 S9        30.15R
YOUNGSTOWN     CLOUDY    68  63  84 S5        30.16R
$$

OHZ042-051>053-060>062-070>072-077>081-261300-
  SOUTHWEST OHIO

CITY           SKY/WX    TMP DP  RH WIND       PRES   REMARKS
CINC-COVINGTON NOT AVBL
CINC-LUNKEN    CLOUDY    67  65  93 S6        30.12S
HAMILTON       PTSUNNY   69  65  86 CALM      30.12R
DAYTON         NOT AVBL
WRIGHT-PAT AFB NOT AVBL
DAYTON GENERAL CLOUDY    67  65  93 S8        30.12R
WILMINGTON     CLOUDY    67  63  87 S7        30.14R
$$

OHZ036-037-039>041-045>050-054>059-063>069-073>076-082>088-261300-
  CENTRAL AND SOUTHEAST OHIO

CITY           SKY/WX    TMP DP  RH WIND       PRES   REMARKS
COLUMBUS       CLOUDY    68  64  87 S5        30.14S
OSU AIRPORT    PTSUNNY   69  64  84 SW6       30.14R
BOLTON FIELD   CLOUDY    64  64 100 SE3       30.15
RICKENBACK AFB NOT AVBL
NEWARK         MOSUNNY   69  66  90 CALM      30.15R
MARION         MOSUNNY   70  63  78 S12       30.14R
LANCASTER      CLOUDY    68  64  87 VRB3      30.16R
ZANESVILLE     PTSUNNY   68  64  87 S5        30.17R
NEW PHILLY     MOSUNNY   68  65  90 SE5       30.17R
$$



USA.gov is the U.S. government's official web portal to all federal, state and local government web resources and services.